Content
SEND FEEDBACK

Daily
Averages
Monthly
Summary
United States of America

WILMINGTON, NORTH CAROLINA


Home > North America > United States > North Carolina
Elevation: 72 feet     Latitude: 34 16N     Longitude: 077 54W

WEATHER
 
SELECT A DAY
Number of Records: 209,164;   Date Range: 1/1/95 - 9/21/14
 
SHARE

PRINT THIS DATA

[ ← Previous Day ]
WEATHER ALMANAC - FEBRUARY 12, 2013
[ Next Day → ]
[ °C ]   °F
Weather ElementAverageHighLow
Temperature58.2 °F63 °F (2:53 pm)51.1 °F (11:53 pm)
Dewpoint50.6 °F57.2 °F (1:32 am)37.9 °F (2:53 pm)
Humidity78.1 %94 % (3:50 am)40 % (2:53 pm)
Barometer30.01 in30.09 in (10:53 am)29.95 in (9:53 pm)
Wind Speed6.8 mph15 mph (2:53 am)
Weather ElementAverage
Visibility9.7 mi
Wind DirectionSSW (205.9 °)

Weather ElementTotal
Precipitation0.31 in
Heating Degree Days8 (Base 65)
Growing Degree Days7.1 (Base 50)
Averaged from 29 records on February 12, 2013
WEATHER CONDITIONS BREAKOUT
WIND DIRECTION BREAKOUT
WEATHER BY HOUR - FEBRUARY 12, 2013
[ °C ]   °F
Local TimeTemperatureDewpointHumidityBarometerVisibilityWind DirectionWind SpeedGust SpeedPrecipitationEventsConditions
12:53 AM61.0 °F57.0 °F87 %30.01 in10.0 miWSW (240°)11.5 mph0.00 inScattered Clouds
1:32 AM60.8 °F57.2 °F88 %30.01 in10.0 miWSW (240°)10.4 mph0.01 inRainLight Rain
1:53 AM60.1 °F57.0 °F90 %29.99 in5.0 miSW (230°)11.5 mph0.05 inRainRain
2:34 AM60.8 °F57.2 °F88 %30.01 in10.0 miWSW (250°)11.5 mph0.05 inOvercast
2:53 AM60.1 °F57.0 °F90 %30.01 in10.0 miWSW (240°)15.0 mph0.06 inRainLight Rain
3:29 AM60.8 °F57.2 °F88 %29.99 in10.0 miWSW (250°)12.7 mph0.00 inOvercast
3:41 AM60.8 °F57.2 °F88 %29.99 in10.0 miWSW (250°)9.2 mph0.00 inRainLight Rain
3:50 AM59.0 °F57.2 °F94 %29.98 in10.0 miWSW (250°)8.1 mph0.00 inMostly Cloudy
3:53 AM59.0 °F57.0 °F93 %29.98 in10.0 miWSW (250°)8.1 mph0.00 inMostly Cloudy
4:53 AM57.9 °F55.9 °F93 %29.99 in10.0 miWSW (250°)8.1 mphClear
5:53 AM57.0 °F55.0 °F93 %30.02 in10.0 miWSW (250°)9.2 mphPartly Cloudy
6:53 AM57.0 °F54.0 °F89 %30.02 in10.0 miWest (260°)5.8 mphPartly Cloudy
7:53 AM57.0 °F54.0 °F89 %30.05 in10.0 miWest (270°)5.8 mphMostly Cloudy
8:53 AM57.0 °F53.1 °F87 %30.05 in10.0 miNW (310°)6.9 mphOvercast
9:53 AM57.9 °F52.0 °F81 %30.06 in10.0 miNW (310°)8.1 mphOvercast
10:53 AM57.9 °F48.0 °F70 %30.09 in10.0 miNNW (330°)11.5 mphScattered Clouds
11:53 AM57.9 °F45.0 °F62 %30.09 in10.0 miNW (320°)6.9 mphOvercast
12:53 PM60.1 °F39.0 °F46 %30.03 in10.0 miVariable3.5 mphClear
1:53 PM62.1 °F39.0 °F43 %30.02 in10.0 miCalmClear
2:53 PM63.0 °F37.9 °F40 %29.99 in10.0 miWSW (240°)5.8 mphClear
3:53 PM62.1 °F39.0 °F43 %29.99 in10.0 miWSW (240°)4.6 mphScattered Clouds
4:53 PM59.0 °F45.0 °F60 %29.97 in10.0 miSE (130°)4.6 mphClear
5:53 PM55.9 °F46.9 °F72 %30.00 in10.0 miSSW (200°)4.6 mphClear
6:53 PM55.9 °F46.9 °F72 %29.98 in10.0 miCalmClear
7:53 PM55.0 °F48.9 °F80 %30.01 in10.0 miSW (220°)4.6 mphMostly Cloudy
8:53 PM55.0 °F48.9 °F80 %29.99 in10.0 miSSW (200°)5.8 mphMostly Cloudy
9:53 PM54.0 °F48.9 °F83 %29.95 in10.0 miCalm0.00 inRainLight Rain
10:53 PM53.1 °F51.1 °F93 %29.99 in9.0 miWSW (240°)3.5 mph0.02 inRainLight Rain
11:53 PM51.1 °F46.0 °F83 %30.00 in8.0 miCalm0.12 inRainLight Rain
Hourly data recorded from KILM, located miles away from Wilmington, North Carolina







STORIES FROM OUR PARTNERS